Location: Atherton
(17.2661°S, 145.4859°E)
Time: 00:38:19
(UTC+10:00)

Vanguard 1 - Pass Details

Date: 03 July 2025
Orbit: 649 x 3822 km, 34.2° (Epoch: 17 July)

Event Time Altitude Azimuth Distance (km) Brightness Sun altitude
Rises 13:50:56 0° 323° (NW) 7,090 15.2 44.3°
Reaches altitude 10° 13:55:30 10° 328° (NNW) 6,367 15.3 43.8°
Maximum altitude 14:17:00 54° 40° (NE) 4,312 14.0 41.0°
Drops below altitude 10° 14:37:06 10° 110° (ESE) 6,078 13.8 38.0°
Sets 14:41:14 0° 114° (ESE) 6,774 13.9 37.4°
